Find Starlink 11531

NORAD ID: 62841 Int'l Des: 2025-019 Owner: SPXS Country: US Constellation: starlink operational
LEOCIRCULAR

Live-Position

3D-Globus wird geladen...

Über Starlink 11531

Beschreibung wird geladen...

Nächste Überflüge

Passes for default location (London). Set your location on the main map for personalized predictions.

Höhenverlauf

Loading altitude history...

Zweizeiliger Elementsatz

1 62841U 25019N 26121.68405444 .00214977 00000-0 16274-2 0 9997
2 62841 42.9995 346.7035 0002619 250.3023 109.7563 15.70962880 72211
Epoch: 1. Mai 2026 • Age: 12 hours

Aktueller Status

Höhe 366.5 km
Geschwindigkeit 7.69 km/s
Subsatellitenpunkt -41.62°S, 47.77°W
Startdatum 27. Jan. 2025
Alter 1.2 years
Typ internet

Technische Details

Klassifizierung Payload
Masse 960.00 kg
Trockenmasse 910.00 kg
Gesamtmasse 960.00 kg
Länge 0.30 m
Durchmesser 4.10 m
Spannweite 29.00 m
Form Box + pan
Hersteller SPXS
Bus-Typ Starlink V2MD
Phasenstatus In Orbit
Besitzer/Staat SPXS/US

Most Searched